| time (UTC) | temp F | wind direction | speed MPH | gust MPH | rain 1hr in | rain 24hr in | rain mn in | humidity % | barometer mb |
| 20260902040044 | 77 | 219 | 0.0 | 0.0 | 0.00 | 0.00 | 0.00 | 88 | 1013.7 |
| 20260902034538 | 78 | 218 | 0.0 | 0.0 | 0.00 | 0.00 | 0.95 | 87 | 1013.6 |
| 20260902033028 | 78 | 219 | 1.0 | 0.0 | 0.00 | 0.00 | 0.95 | 86 | 1013.6 |
| 20260902031522 | 79 | 218 | 1.0 | 0.0 | 0.00 | 0.00 | 0.95 | 85 | 1013.4 |
| 20260902030115 | 79 | 198 | 1.0 | 0.0 | 0.00 | 0.00 | 0.95 | 84 | 1013.3 |
| 20260902024537 | 79 | 213 | 2.0 | 0.0 | 0.00 | 0.00 | 0.95 | 84 | 1013.2 |
| 20260902023040 | 80 | 221 | 2.0 | 0.0 | 0.00 | 0.00 | 0.95 | 84 | 1013.1 |
| 20260902021518 | 79 | 209 | 3.0 | 0.0 | 0.00 | 0.00 | 0.95 | 85 | 1012.8 |
| 20260902020010 | 79 | 228 | 3.0 | 0.0 | 0.00 | 0.00 | 0.95 | 86 | 1012.7 |
| 20260902014600 | 78 | 217 | 2.0 | 0.0 | 0.00 | 0.00 | 0.95 | 88 | 1012.7 |
| 20260902014505 | 78 | 217 | 2.0 | 0.0 | 0.00 | 0.00 | 0.95 | 88 | 1012.8 |
| 20260902013050 | 78 | 215 | 1.0 | 0.0 | 0.00 | 0.00 | 0.95 | 90 | 1013.0 |
| 20260902011549 | 78 | 215 | 0.0 | 0.0 | 0.00 | 0.00 | 0.95 | 91 | 1012.8 |
| 20260902010028 | 80 | 215 | 0.0 | 0.0 | 0.00 | 0.00 | 0.95 | 90 | 1012.6 |
| 20260902004516 | 80 | 215 | 2.0 | 0.0 | 0.00 | 0.00 | 0.95 | 89 | 1012.3 |
| 20260902003011 | 80 | 218 | 2.0 | 0.0 | 0.00 | 0.00 | 0.95 | 91 | 1012.4 |
| 20260902001554 | 80 | 194 | 1.0 | 0.0 | 0.00 | 0.00 | 0.95 | 92 | 1012.6 |
| 20260902000045 | 82 | 183 | 0.0 | 0.0 | 0.00 | 0.00 | 0.95 | 91 | 1012.9 |
| 20260901234530 | 82 | 184 | 0.0 | 0.0 | 0.00 | 0.00 | 0.95 | 90 | 1013.1 |
| 20260901233022 | 84 | 184 | 0.0 | 0.0 | 0.00 | 0.00 | 0.95 | 88 | 1013.3 |
| 20260901231518 | 84 | 183 | 0.0 | 0.0 | 0.00 | 0.00 | 0.95 | 89 | 1013.3 |
| 20260901230011 | 84 | 183 | 0.0 | 0.0 | 0.00 | 0.00 | 0.95 | 89 | 1013.4 |
| 20260901224512 | 84 | 183 | 0.0 | 0.0 | 0.00 | 0.00 | 0.95 | 90 | 1013.2 |
| 20260901223009 | 84 | 183 | 0.0 | 0.0 | 0.00 | 0.00 | 0.95 | 88 | 1013.3 |
| 20260901221602 | 85 | 184 | 0.0 | 0.0 | 0.00 | 0.00 | 0.95 | 85 | 1013.3 |
| 20260901221502 | 85 | 184 | 0.0 | 0.0 | 0.00 | 0.00 | 0.95 | 85 | 1013.3 |
| 20260901220045 | 85 | 183 | 1.0 | 0.0 | 0.00 | 0.00 | 0.95 | 86 | 1013.3 |
| 20260901214547 | 85 | 183 | 0.0 | 0.0 | 0.00 | 0.00 | 0.95 | 86 | 1013.5 |
| 20260901213020 | 86 | 183 | 0.0 | 0.0 | 0.00 | 0.00 | 0.95 | 83 | 1013.5 |
| 20260901211509 | 86 | 183 | 1.0 | 0.0 | 0.00 | 0.00 | 0.95 | 84 | 1013.6 |
| 20260901210110 | 85 | 183 | 1.0 | 0.0 | 0.00 | 0.00 | 0.95 | 83 | 1013.8 |
| 20260901204541 | 85 | 184 | 1.0 | 0.0 | 0.00 | 0.00 | 0.95 | 84 | 1013.9 |
| 20260901203037 | 85 | 183 | 1.0 | 0.0 | 0.00 | 0.00 | 0.95 | 83 | 1013.9 |
| 20260901201525 | 85 | 171 | 2.0 | 0.0 | 0.00 | 0.00 | 0.95 | 82 | 1013.8 |
| 20260901200017 | 85 | 186 | 3.0 | 0.0 | 0.00 | 0.00 | 0.95 | 85 | 1013.6 |
| 20260901194506 | 84 | 188 | 3.0 | 0.0 | 0.00 | 0.00 | 0.95 | 85 | 1014.0 |
| 20260901193047 | 81 | 191 | 2.0 | 0.0 | 0.00 | 0.00 | 0.95 | 90 | 1014.1 |
| 20260901191540 | 79 | 172 | 1.0 | 0.0 | 0.00 | 0.00 | 0.95 | 92 | 1014.1 |
| 20260901190021 | 78 | 173 | 3.0 | 0.0 | 0.00 | 0.00 | 0.95 | 92 | 1014.3 |
| 20260901184509 | 78 | 195 | 3.0 | 0.0 | 0.00 | 0.00 | 0.95 | 92 | 1014.1 |
| 20260901183108 | 78 | 167 | 4.0 | 0.0 | 0.00 | 0.00 | 0.95 | 92 | 1014.2 |
| 20260901181542 | 77 | 193 | 3.0 | 0.0 | 0.00 | 0.00 | 0.95 | 94 | 1014.4 |
| 20260901180033 | 76 | 190 | 3.0 | 0.0 | 0.00 | 0.00 | 0.95 | 97 | 1014.3 |
| 20260901174522 | 74 | 144 | 2.0 | 0.0 | 0.00 | 0.00 | 0.95 | 96 | 1014.8 |
| 20260901173025 | 74 | 192 | 2.0 | 0.0 | 0.00 | 0.00 | 0.95 | 96 | 1015.2 |
| 20260901171510 | 73 | 201 | 4.0 | 0.0 | 0.00 | 0.00 | 0.93 | 96 | 1015.4 |
| 20260901170053 | 74 | 215 | 2.0 | 0.0 | 0.00 | 0.00 | 0.89 | 96 | 1015.8 |
| 20260901164547 | 73 | 190 | 2.0 | 0.0 | 0.00 | 0.00 | 0.75 | 96 | 1015.5 |
| 20260901163036 | 73 | 217 | 1.0 | 0.0 | 0.00 | 0.00 | 0.75 | 96 | 1015.8 |
| 20260901161526 | 73 | 203 | 2.0 | 0.0 | 0.00 | 0.00 | 0.65 | 96 | 1015.3 |
| 20260901160015 | 73 | 213 | 2.0 | 0.0 | 0.00 | 0.00 | 0.65 | 96 | 1015.5 |
| 20260901154618 | 73 | 219 | 1.0 | 0.0 | 0.00 | 0.00 | 0.65 | 95 | 1015.2 |
| 20260901154502 | 73 | 219 | 1.0 | 0.0 | 0.00 | 0.00 | 0.65 | 95 | 1015.2 |
| 20260901153106 | 73 | 223 | 2.0 | 0.0 | 0.00 | 0.00 | 0.64 | 95 | 1015.5 |
| 20260901151546 | 73 | 215 | 4.0 | 0.0 | 0.00 | 0.00 | 0.63 | 95 | 1016.2 |
| 20260901150044 | 74 | 264 | 1.0 | 0.0 | 0.00 | 0.00 | 0.44 | 94 | 1017.1 |
| 20260901144532 | 75 | 146 | 1.0 | 0.0 | 0.00 | 0.00 | 0.28 | 92 | 1016.6 |
| 20260901143018 | 76 | 204 | 4.0 | 0.0 | 0.00 | 0.00 | 0.12 | 90 | 1016.1 |
| 20260901141508 | 77 | 207 | 2.0 | 0.0 | 0.00 | 0.00 | 0.06 | 89 | 1015.4 |
| 20260901140054 | 79 | 209 | 2.0 | 0.0 | 0.00 | 0.00 | 0.01 | 85 | 1015.0 |
| 20260901134540 | 80 | 232 | 2.0 | 0.0 | 0.00 | 0.00 | 0.00 | 83 | 1015.0 |
| 20260901133032 | 80 | 245 | 3.0 | 0.0 | 0.00 | 0.00 | 0.00 | 83 | 1014.7 |
| 20260901131528 | 79 | 219 | 4.0 | 0.0 | 0.00 | 0.00 | 0.00 | 86 | 1014.8 |
| 20260901130016 | 78 | 227 | 4.0 | 0.0 | 0.00 | 0.00 | 0.00 | 86 | 1014.9 |
| 20260901124556 | 77 | 261 | 3.0 | 0.0 | 0.00 | 0.00 | 0.00 | 88 | 1015.0 |
| 20260901123051 | 77 | 214 | 4.0 | 0.0 | 0.00 | 0.00 | 0.00 | 88 | 1015.0 |
| 20260901121541 | 76 | 209 | 3.0 | 0.0 | 0.00 | 0.00 | 0.00 | 89 | 1015.0 |
| 20260901120022 | 75 | 209 | 3.0 | 0.0 | 0.00 | 0.00 | 0.00 | 90 | 1014.9 |
| 20260901114512 | 75 | 210 | 2.0 | 0.0 | 0.00 | 0.00 | 0.00 | 90 | 1014.8 |
| 20260901113004 | 75 | 211 | 2.0 | 0.0 | 0.00 | 0.00 | 0.00 | 91 | 1014.7 |
| 20260901111603 | 74 | 209 | 2.0 | 0.0 | 0.00 | 0.00 | 0.00 | 91 | 1014.6 |
| 20260901110051 | 74 | 209 | 3.0 | 0.0 | 0.00 | 0.00 | 0.00 | 91 | 1014.5 |
| 20260901104541 | 74 | 215 | 2.0 | 0.0 | 0.00 | 0.00 | 0.00 | 92 | 1014.1 |
| 20260901103027 | 74 | 200 | 2.0 | 0.0 | 0.00 | 0.00 | 0.00 | 93 | 1014.1 |
| 20260901101517 | 73 | 199 | 1.0 | 0.0 | 0.00 | 0.00 | 0.00 | 94 | 1014.0 |
| 20260901100015 | 73 | 199 | 0.0 | 0.0 | 0.00 | 0.00 | 0.00 | 94 | 1014.0 |
| 20260901094556 | 73 | 199 | 0.0 | 0.0 | 0.00 | 0.00 | 0.00 | 94 | 1014.1 |
| 20260901093049 | 73 | 199 | 1.0 | 0.0 | 0.00 | 0.00 | 0.00 | 94 | 1014.0 |
| 20260901091532 | 72 | 197 | 1.0 | 0.0 | 0.00 | 0.00 | 0.00 | 95 | 1014.0 |
| 20260901090023 | 72 | 196 | 0.0 | 0.0 | 0.00 | 0.00 | 0.00 | 95 | 1014.0 |
| 20260901084515 | 72 | 197 | 0.0 | 0.0 | 0.00 | 0.00 | 0.00 | 95 | 1014.0 |
| 20260901083013 | 71 | 197 | 0.0 | 0.0 | 0.00 | 0.00 | 0.00 | 95 | 1013.9 |
| 20260901081505 | 71 | 196 | 0.0 | 0.0 | 0.00 | 0.00 | 0.00 | 95 | 1013.9 |
| 20260901080101 | 71 | 197 | 0.0 | 0.0 | 0.00 | 0.00 | 0.00 | 94 | 1014.0 |
| 20260901074547 | 72 | 197 | 0.0 | 0.0 | 0.00 | 0.00 | 0.00 | 94 | 1013.8 |
| 20260901073037 | 72 | 197 | 0.0 | 0.0 | 0.00 | 0.00 | 0.00 | 95 | 1013.8 |
| 20260901071529 | 71 | 196 | 0.0 | 0.0 | 0.00 | 0.00 | 0.00 | 94 | 1013.9 |
| 20260901070028 | 71 | 196 | 0.0 | 0.0 | 0.00 | 0.00 | 0.00 | 94 | 1013.9 |
| 20260901064519 | 72 | 197 | 0.0 | 0.0 | 0.00 | 0.00 | 0.00 | 93 | 1013.9 |
| 20260901063100 | 72 | 197 | 0.0 | 0.0 | 0.00 | 0.00 | 0.00 | 93 | 1013.8 |
| 20260901063001 | 72 | 197 | 0.0 | 0.0 | 0.00 | 0.00 | 0.00 | 93 | 1013.7 |
| 20260901061547 | 72 | 197 | 0.0 | 0.0 | 0.00 | 0.00 | 0.00 | 93 | 1013.6 |
| 20260901060039 | 72 | 196 | 0.0 | 0.0 | 0.00 | 0.00 | 0.00 | 94 | 1013.6 |
| 20260901054525 | 72 | 197 | 0.0 | 0.0 | 0.00 | 0.00 | 0.00 | 93 | 1013.8 |
| 20260901053015 | 72 | 196 | 0.0 | 0.0 | 0.00 | 0.00 | 0.00 | 92 | 1014.1 |
| 20260901051507 | 73 | 197 | 0.0 | 0.0 | 0.00 | 0.00 | 0.00 | 92 | 1014.2 |
| 20260901050049 | 73 | 197 | 0.0 | 0.0 | 0.00 | 0.00 | 0.00 | 91 | 1013.9 |
| 20260901044538 | 74 | 198 | 0.0 | 0.0 | 0.00 | 0.00 | 0.00 | 90 | 1013.9 |
| 20260901043032 | 74 | 197 | 0.0 | 0.0 | 0.00 | 0.00 | 0.00 | 89 | 1014.0 |
| 20260901041526 | 75 | 197 | 1.0 | 0.0 | 0.00 | 0.00 | 0.00 | 88 | 1013.8 |